Location: Tierra del Sol
(32.6128°N, 116.3319°W)
Time: 06:43:59
(UTC-07:00)

Vanguard 1 - All Passes

Search period start: 19 July 2018 00:00
Search period end: 29 July 2018 00:00
Orbit: 650 x 3833 km, 34.2° (Epoch: 18 July)

Date Brightness Start Highest point End Pass type
(mag) Time Alt. Az. Time Alt. Az. Time Alt. Az.
19 Jul - 00:36:28 10° W 00:41:32 82° N 00:45:58 10° E night (unlit)
19 Jul - 02:57:12 10° WNW 03:01:37 88° N 03:07:22 10° ESE visible
19 Jul - 05:17:00 10° W 05:21:55 36° SSW 05:29:37 10° SE visible
19 Jul - 07:41:07 10° SW 07:43:45 11° SSW 07:46:49 10° S daylight
19 Jul - 20:15:10 10° SSW 20:21:22 18° SSE 20:25:53 10° ESE visible
19 Jul - 22:35:29 10° SW 22:42:26 52° SSE 22:47:04 10° E visible
20 Jul - 00:57:38 10° W 01:02:31 73° N 01:06:59 10° E night (unlit)
20 Jul - 03:18:08 10° W 03:22:33 74° SSW 03:28:31 10° ESE visible
20 Jul - 05:38:20 10° W 05:43:01 26° SSW 05:49:54 10° SSE daylight
20 Jul - 20:34:43 10° SSW 20:42:35 26° SSE 20:47:47 10° E visible
20 Jul - 22:56:31 10° WSW 23:03:23 69° SSE 23:08:00 10° E visible
21 Jul - 01:18:46 10° W 01:23:30 72° N 01:28:02 10° E night (unlit)
21 Jul - 03:39:05 10° W 03:43:29 55° SSW 03:49:32 10° ESE visible
21 Jul - 06:00:09 10° WSW 06:04:10 18° SSW 06:09:33 10° SSE daylight
21 Jul - 18:37:42 10° S 18:41:27 12° SSE 18:44:39 10° SE daylight
21 Jul - 20:54:56 10° SW 21:03:45 35° SSE 21:09:10 10° E visible
21 Jul - 23:17:44 10° WSW 23:24:20 86° S 23:28:54 10° ENE visible
22 Jul - 01:39:51 10° W 01:44:29 78° N 01:49:07 10° E visible
22 Jul - 04:00:08 10° W 04:04:25 39° SSW 04:10:20 10° SE visible
22 Jul - 06:23:25 10° SW 06:25:23 11° SSW 06:27:36 10° S daylight
22 Jul - 18:55:04 10° S 19:02:53 18° SSE 19:08:30 10° ESE daylight
22 Jul - 21:15:36 10° SW 21:24:50 47° SSE 21:30:18 10° E visible
22 Jul - 23:39:01 10° W 23:45:19 81° N 23:49:49 10° E visible
23 Jul - 02:00:53 10° WNW 02:05:26 88° SSW 02:10:11 10° ESE visible
23 Jul - 04:21:22 10° W 04:25:23 27° SSW 04:30:47 10° SSE visible
23 Jul - 19:14:15 10° SSW 19:24:13 25° SSE 19:30:42 10° ESE daylight
23 Jul - 21:36:36 10° WSW 21:45:53 61° SSE 21:51:17 10° E visible
24 Jul - 00:00:20 10° W 00:06:19 74° N 00:10:45 10° E visible
24 Jul - 02:21:54 10° W 02:26:21 68° SSW 02:31:11 10° ESE visible
24 Jul - 04:42:59 10° WSW 04:46:23 18° SSW 04:50:42 10° SSE visible
24 Jul - 17:18:21 10° SSE 17:22:11 11° SSE 17:25:33 10° SE daylight
24 Jul - 19:34:13 10° SSW 19:45:31 34° SSE 19:52:16 10° E daylight
24 Jul - 21:57:50 10° WSW 22:06:54 76° SSE 22:12:11 10° E visible
25 Jul - 00:21:37 10° W 00:27:19 74° N 00:31:43 10° E visible
25 Jul - 02:42:57 10° W 02:47:13 48° SSW 02:52:02 10° SE visible
25 Jul - 05:05:47 10° SW 05:07:27 11° SSW 05:09:18 10° S visible
25 Jul - 17:34:33 10° S 17:43:44 17° SSE 17:50:32 10° ESE daylight
25 Jul - 19:54:42 10° SW 20:06:43 44° SSE 20:13:31 10° E visible
25 Jul - 22:19:14 10° WSW 22:27:54 90° S 22:33:04 10° ENE visible
26 Jul - 00:42:51 10° W 00:48:19 81° N 00:52:43 10° E visible
26 Jul - 03:04:08 10° W 03:08:05 32° SSW 03:12:37 10° SE visible
26 Jul - 17:53:13 10° SSW 18:05:12 24° SSE 18:13:10 10° ESE daylight
26 Jul - 20:15:36 10° SW 20:27:52 56° SSE 20:34:34 10° E visible
26 Jul - 22:40:44 10° W 22:48:56 81° N 22:53:57 10° E visible
27 Jul - 01:04:01 10° WNW 01:09:16 84° SSW 01:13:40 10° ESE visible
27 Jul - 03:25:35 10° WSW 03:28:56 21° SSW 03:32:47 10° SSE visible
27 Jul - 18:12:50 10° SSW 18:26:36 32° SSE 18:35:02 10° E daylight
27 Jul - 20:36:48 10° WSW 20:48:59 69° SSE 20:55:31 10° E visible
27 Jul - 23:02:14 10° W 23:09:59 76° N 23:14:51 10° E visible
28 Jul - 01:25:10 10° W 01:30:10 63° SSW 01:34:32 10° ESE night (unlit)
28 Jul - 03:47:44 10° WSW 03:49:50 13° SSW 03:52:06 10° S visible
28 Jul - 16:14:15 10° S 16:23:55 16° SE 16:31:32 10° ESE daylight
28 Jul - 18:33:02 10° SW 18:47:56 42° SSE 18:56:27 10° E daylight
28 Jul - 20:58:14 10° WSW 21:10:04 81° SSE 21:16:24 10° ENE visible
28 Jul - 23:23:41 10° W 23:31:02 77° N 23:35:46 10° E visible
